Grosse Ile, MI

5:46 AM EDT on April 29, 2017 (GMT -0400)
Grosse Ile Municipal

Weather History for KONZ - October, 2012

Change the Weather History Date:

Friday, October 12, 2012

  Actual Average (KDTW) Record (KDTW)
Temperature  
Mean Temperature 44 °F -  
Max Temperature 51 °F 62 °F 84 °F (1995)
Min Temperature 37 °F 42 °F 26 °F (1875)
Degree Days  
Heating Degree Days 21    
Moisture  
Dew Point 32 °F    
Average Humidity 61    
Maximum Humidity 87    
Minimum Humidity 30    
Precipitation  
Precipitation 0.00 in - - ()
Sea Level Pressure  
Sea Level Pressure 30.34 in    
Wind  
Wind Speed 8 mph (NNW)    
Max Wind Speed 14 mph    
Max Gust Speed 21 mph    
Visibility 10 miles    
Events      
Averages and records for this station are not official NWS values.
T = Trace of Precipitation, MM = Missing Value Source: NWS Daily Summary

Daily Weather History Graph

Daily Weather History Graph

Search for Another Location

Airport or City:

Trip Planner

Search our weather history database for the weather conditions in past years. The results will help you decide how hot, cold, wet, or windy it might be!

Date:

Astronomy

Oct. 12, 2012 Rise Set
Actual Time 7:42 AM EDT 6:54 PM EDT
Civil Twilight 7:14 AM EDT 7:23 PM EDT
Nautical Twilight 6:41 AM EDT 7:55 PM EDT
Astronomical Twilight 6:09 AM EDT 8:27 PM EDT
Moon 4:21 AM EDT (10/12) 5:06 PM EDT (10/12)
Length of Visible Light 12h 08m
Length of Day
11h 12m
Waning Crescent, 11% of the Moon is Illuminated
Oct 12
Waning Crescent
Oct 15
New
Oct 21
First Quarter
Oct 29
Full
Nov 6
Last Quarter

Hourly Weather History & Observations

Time (EDT) Temp. Windchill Dew Point Humidity Pressure Visibility Wind Dir Wind Speed Gust Speed Precip Events Conditions
12:15 AM 51.8 °F - 39.2 °F 62% 30.15 in 10.0 mi NNW 10.4 mph - N/A   Overcast
12:34 AM 50.0 °F - 37.4 °F 62% 30.16 in 10.0 mi North 13.8 mph - N/A   Overcast
12:54 AM 48.2 °F - 37.4 °F 66% 30.17 in 10.0 mi NNW 12.7 mph - N/A   Overcast
1:15 AM 46.4 °F 40.7 °F 35.6 °F 66% 30.19 in 10.0 mi North 12.7 mph 18.4 mph N/A   Overcast
1:34 AM 46.4 °F 41.5 °F 33.8 °F 62% 30.20 in 10.0 mi NNW 10.4 mph 20.7 mph N/A   Overcast
1:54 AM 44.6 °F 38.1 °F 33.8 °F 66% 30.21 in 10.0 mi NNW 13.8 mph 19.6 mph N/A   Overcast
2:14 AM 44.6 °F 38.8 °F 33.8 °F 66% 30.21 in 10.0 mi NNW 11.5 mph - N/A   Overcast
2:34 AM 44.6 °F 38.8 °F 35.6 °F 71% 30.22 in 10.0 mi NNW 11.5 mph 16.1 mph N/A   Overcast
2:54 AM 44.6 °F 39.2 °F 35.6 °F 71% 30.22 in 10.0 mi North 10.4 mph - N/A   Overcast
3:14 AM 44.6 °F 40.7 °F 35.6 °F 71% 30.21 in 10.0 mi NNW 6.9 mph - N/A   Overcast
3:34 AM 42.8 °F 38.6 °F 33.8 °F 70% 30.21 in 10.0 mi NW 6.9 mph 10.4 mph N/A   Overcast
4:14 AM 42.8 °F 38.6 °F 33.8 °F 70% 30.22 in 10.0 mi WNW 6.9 mph - N/A   Overcast
4:34 AM 42.8 °F 37.0 °F 33.8 °F 70% 30.23 in 10.0 mi WNW 10.4 mph - N/A   Overcast
4:55 AM 42.8 °F 38.0 °F 33.8 °F 70% 30.24 in 10.0 mi NW 8.1 mph - N/A   Overcast
5:14 AM 42.8 °F 37.5 °F 33.8 °F 70% 30.25 in 10.0 mi WNW 9.2 mph - N/A   Overcast
5:34 AM 42.8 °F 37.0 °F 33.8 °F 70% 30.26 in 10.0 mi NW 10.4 mph - N/A   Mostly Cloudy
5:55 AM 42.8 °F 36.6 °F 33.8 °F 70% 30.27 in 10.0 mi NW 11.5 mph - N/A   Scattered Clouds
6:14 AM 41.0 °F 35.8 °F 33.8 °F 76% 30.28 in 10.0 mi NW 8.1 mph - N/A   Clear
6:34 AM 41.0 °F 36.4 °F 33.8 °F 76% 30.30 in 10.0 mi NW 6.9 mph - N/A   Clear
6:55 AM 39.2 °F 33.6 °F 33.8 °F 81% 30.31 in 10.0 mi NW 8.1 mph - N/A   Clear
7:14 AM 39.2 °F 33.0 °F 33.8 °F 81% 30.31 in 10.0 mi NNW 9.2 mph - N/A   Clear
7:34 AM 39.2 °F 35.0 °F 33.8 °F 81% 30.33 in 10.0 mi NNW 5.8 mph - N/A   Clear
7:54 AM 37.4 °F 32.8 °F 33.8 °F 87% 30.33 in 10.0 mi NNW 5.8 mph - N/A   Clear
8:14 AM 39.2 °F 35.0 °F 33.8 °F 81% 30.35 in 10.0 mi NNW 5.8 mph - N/A   Clear
8:34 AM 39.2 °F 33.6 °F 33.8 °F 81% 30.36 in 10.0 mi NNW 8.1 mph - N/A   Clear
8:54 AM 41.0 °F 36.4 °F 33.8 °F 76% 30.37 in 10.0 mi NNW 6.9 mph - N/A   Clear
9:14 AM 42.8 °F 38.0 °F 33.8 °F 70% 30.37 in 10.0 mi NNW 8.1 mph - N/A   Clear
9:35 AM 42.8 °F 38.0 °F 33.8 °F 70% 30.38 in 10.0 mi North 8.1 mph - N/A   Clear
9:54 AM 42.8 °F 37.5 °F 32.0 °F 66% 30.39 in 10.0 mi North 9.2 mph - N/A   Clear
10:14 AM 44.6 °F 39.2 °F 32.0 °F 61% 30.39 in 10.0 mi NNW 10.4 mph - N/A   Clear
10:35 AM 44.6 °F 39.7 °F 32.0 °F 61% 30.40 in 10.0 mi North 9.2 mph - N/A   Clear
10:54 AM 44.6 °F 39.7 °F 30.2 °F 57% 30.41 in 10.0 mi North 9.2 mph - N/A   Clear
11:14 AM 46.4 °F 45.2 °F 30.2 °F 53% 30.41 in 10.0 mi NNW 3.5 mph - N/A   Clear
11:34 AM 48.2 °F - 28.4 °F 46% 30.42 in 10.0 mi NNW 9.2 mph - N/A   Clear
12:15 PM 48.2 °F - 28.4 °F 46% 30.42 in 10.0 mi NE 9.2 mph - N/A   Clear
12:34 PM 48.2 °F - 28.4 °F 46% 30.42 in 10.0 mi NNE 10.4 mph 16.1 mph N/A   Clear
12:54 PM 50.0 °F - 28.4 °F 43% 30.42 in 10.0 mi North 6.9 mph 16.1 mph N/A   Clear
1:15 PM 50.0 °F - 30.2 °F 47% 30.42 in 10.0 mi North 8.1 mph - N/A   Clear
1:34 PM 51.8 °F - 28.4 °F 41% 30.41 in 10.0 mi North 8.1 mph - N/A   Clear
1:54 PM 51.8 °F - 28.4 °F 41% 30.41 in 10.0 mi NNE 5.8 mph - N/A   Clear
2:34 PM 51.8 °F - 28.4 °F 41% 30.41 in 10.0 mi NE 6.9 mph - N/A   Scattered Clouds
2:54 PM 51.8 °F - 28.4 °F 41% 30.40 in 10.0 mi NE 5.8 mph - N/A   Scattered Clouds
3:14 PM 51.8 °F - 26.6 °F 38% 30.40 in 10.0 mi NE 4.6 mph - N/A   Scattered Clouds
3:34 PM 51.8 °F - 26.6 °F 38% 30.40 in 10.0 mi Calm Calm - N/A   Clear
3:54 PM 51.8 °F - 24.8 °F 35% 30.39 in 10.0 mi Calm Calm - N/A   Clear
4:14 PM 51.8 °F - 23.0 °F 33% 30.39 in 10.0 mi Calm Calm - N/A   Clear
4:34 PM 51.8 °F - 21.2 °F 30% 30.39 in 10.0 mi Calm Calm - N/A   Clear
4:54 PM 51.8 °F - 21.2 °F 30% 30.39 in 10.0 mi Calm Calm - N/A   Clear
5:14 PM 51.8 °F - 30.2 °F 44% 30.39 in 10.0 mi South 5.8 mph - N/A   Clear
5:35 PM 50.0 °F - 33.8 °F 54% 30.40 in 10.0 mi South 6.9 mph - N/A   Clear
5:54 PM 50.0 °F - 30.2 °F 47% 30.40 in 10.0 mi South 3.5 mph - N/A   Clear
6:14 PM 48.2 °F - 30.2 °F 50% 30.39 in 10.0 mi Calm Calm - N/A   Clear
6:54 PM 46.4 °F - 32.0 °F 57% 30.39 in 10.0 mi Calm Calm - N/A   Clear
7:14 PM 46.4 °F - 32.0 °F 57% 30.38 in 10.0 mi Calm Calm - N/A   Clear
7:34 PM 46.4 °F - 32.0 °F 57% 30.39 in 10.0 mi Calm Calm - N/A   Clear
7:54 PM 46.4 °F 45.2 °F 32.0 °F 57% 30.39 in 10.0 mi SE 3.5 mph - N/A   Clear
8:14 PM 46.4 °F - 33.8 °F 62% 30.38 in 10.0 mi Calm Calm - N/A   Clear
8:34 PM 46.4 °F - 33.8 °F 62% 30.39 in 10.0 mi Calm Calm - N/A   Clear
8:54 PM 44.6 °F - 33.8 °F 66% 30.40 in 10.0 mi Calm Calm - N/A   Clear
9:14 PM 42.8 °F - 33.8 °F 70% 30.40 in 10.0 mi Calm Calm - N/A   Clear
9:34 PM 42.8 °F - 35.6 °F 76% 30.40 in 10.0 mi Calm Calm - N/A   Clear
9:54 PM 44.6 °F - 35.6 °F 71% 30.40 in 10.0 mi Calm Calm - N/A   Clear
10:14 PM 41.0 °F - 35.6 °F 81% 30.40 in 10.0 mi Calm Calm - N/A   Clear
10:34 PM 44.6 °F - 35.6 °F 71% 30.39 in 10.0 mi Calm Calm - N/A   Clear
10:54 PM 44.6 °F - 35.6 °F 71% 30.40 in 10.0 mi Calm Calm - N/A   Clear
11:14 PM 44.6 °F - 35.6 °F 71% 30.40 in 10.0 mi Calm Calm - N/A   Clear
11:55 PM 42.8 °F - 35.6 °F 76% 30.39 in 10.0 mi Calm Calm - N/A   Clear